Regional Weather Roundup
Issued by NWS Goodland, KS

Home | Current Version | Previous Version | Text Only | Print | Product List | Glossary Off
Versions: 1 2 3 4 5 6 7 8 9 10 11 12 13 14 15 16 17 18 19 20 21 22 23 24 25 26 27 28 29 30 31 32 33 34 35 36 37 38 39 40 41 42 43 44 45 46 47 48 49 50

000
ASUS43 KGLD 031508
RWRGLD

GOODLAND FORECAST AREA HOURLY WEATHER ROUNDUP
NATIONAL WEATHER SERVICE GOODLAND KS
900 AM MDT SUN MAY 03 2015

...OFFICIAL OBSERVATIONS...

CITY           SKY/WX    TMP DP  RH WIND       PRES   REMARKS
GOODLAND KS    MOSUNNY   69  48  47 W6        29.88R
HILL CITY KS   SUNNY     75  51  43 W6        29.82S
IMPERIAL NEB   SUNNY     74  42  31 NW15      29.83R
MCCOOK NEB     SUNNY     69  46  43 SW7       29.81F
AKRON CO       SUNNY     62  45  53 W10       29.93R
BURLINGTON CO  SUNNY     71  43  36 NW8       29.90S
LIMON CO       SUNNY     68  36  30 NW14      29.97R
$$

...UNOFFICIAL OBSERVATIONS...

CITY           SKY/WX    TMP DP  RH WIND       PRES   REMARKS
COLBY KS       SUNNY     72  50  46 W6        29.87F
GOVE KS          N/A     75  32  20 MISG        N/A
LENORA KS        N/A     74  32  21 MISG        N/A
NORTON KS      SUNNY     75  39  27 SW9       29.80
SHARON SPRINGS   N/A     72  51  46 MISG        N/A
KIT CARSON CO    N/A     62  48  61 MISG        N/A
YUMA CO          N/A     66  48  52 W12         N/A
$$



USA.gov is the U.S. government's official web portal to all federal, state and local government web resources and services.